CAPELLA-17 (ACADIA)

导读 | 豆包AI

CAPELLA-17(ACADIA)是美国卡佩拉航天公司研发的第三代合成孔径雷达(SAR)对地观测卫星,属于新一代“阿卡迪亚”星座,2025年6月23日成功发射。该卫星将雷达带宽提升至700兆赫,实现0.31米地面分辨率,可提供更高质量图像、更快交付速度,可为军事、民用用户提供高精度全天候对地观测数据,助力卡佩拉扩展商业SAR卫星服务能力。

基本信息
目录编号:
64583
目录名称:
CAPELLA-17 (ACADIA)
国际标识:
2025-135BH
轨道中心:
EARTH
卫星名称:
CAPELLA-17 (ACADIA)
卫星全名:
CAPELLA-17 (ACADIA)
卫星状态:
在轨 (已飞行263 天)
发射日期:
2025-06-23 UTC
国别 :
美国 (US)
星等 :
--
轨道信息
数据来源 国际轨道数据
星历时间: 2026-03-13T03:01:51+0800
23小时前
查看轨道信息
半长轴: 6973.256km
偏心率: 0.0004403
轨道倾角: 97.756°
近地点辐角 321.174°
升交点赤经 186.927°
平近点角 38.916°
近地点: 592.048km
远地点: 598.19km
周期: 96.586分钟
每日圈数: 14.909031
详细信息
使用方式:
暂无
2D轨道图
3D轨道图
轨道高度分析图
轨道倾角分析图
轨道综合分析图
查看轨道综合分析图